Flag for Martinique Weather past 2 weeks in Fort-de-France, Martinique

Now
82 °F

Mostly cloudy.


Feels Like: 87 °F
Forecast: 76 / 85 °F
Wind: 16 mph from East

Location: Le Lamentin Airport

Current Time: Apr 19, 2015 at 3:14:08 PM

Latest Report: Apr 19, 2015 at 3:00 PM


Visibility: N/A

Pressure: 29.98 "Hg

Humidity: 70%

Dew point: 72 °F

Location of Fort-de-FranceLocation

Historic Weather in Fort-de-France — Graph

°F

Fort-de-France temperature yesterday

Maximum temperature yesterday: 86 °F (at 1:00 PM)
Minimum temperature yesterday: 72 °F (at 12:00 AM)
Average temperature yesterday: 79 °F

Past Weeks' High & Low Weather Summary

 TemperatureHumidityPressure
High86 °F (Apr 4, 2:00 PM)100% (Apr 5, 4:30 AM)30.09 "Hg (Apr 5, 4:30 AM)
Low70 °F (Apr 5, 4:30 AM)52% (Apr 4, 2:00 PM)29.86 "Hg (Apr 4, 3:30 PM)
Average79 °F75%29.99 "Hg
* Reported Apr 4 2:00 PM — Apr 19 2:00 PM, Fort-de-France, Weather by CustomWeather, © 2015

Note: Actual official high and low records may vary slightly from our data, if they occured in-between our weather recording intervals... More about our weather records

Advertising

Fort-de-France weather history for previous 24 hours

 ConditionsComfort  
Time TempWeatherWind HumidityBarometerVisibility
2:00 PM
Sun, Apr 19
82 °FBroken clouds.18 mph70%29.95 "HgN/A
1:30 PM82 °FBroken clouds.15 mph70%29.98 "HgN/A
1:00 PM82 °FPartly sunny.17 mph66%29.98 "HgN/A
12:30 PM84 °FScattered clouds.17 mph66%30.01 "HgN/A
12:00 PM84 °FScattered clouds.18 mph66%30.01 "HgN/A
11:30 AM84 °FBroken clouds.18 mph66%30.01 "HgN/A
11:00 AM84 °FPartly sunny.18 mph66%30.04 "HgN/A
10:30 AM82 °FBroken clouds.17 mph74%30.04 "HgN/A
10:00 AM82 °FPartly sunny.21 mph70%30.04 "HgN/A
9:30 AM82 °FBroken clouds.18 mph70%30.04 "HgN/A
9:00 AM82 °FBroken clouds.17 mph70%30.04 "HgN/A
8:30 AM82 °FPartly sunny.16 mph70%30.01 "HgN/A
8:00 AM82 °FBroken clouds.18 mph70%30.01 "HgN/A
7:30 AM81 °FScattered clouds.15 mph74%30.01 "HgN/A
7:00 AM79 °FScattered clouds.12 mph79%29.98 "HgN/A
6:30 AM79 °FPassing clouds.12 mph79%29.98 "HgN/A
6:00 AM77 °FClear.9 mph83%29.98 "HgN/A
5:30 AM77 °FPassing clouds.8 mph83%29.95 "HgN/A
5:00 AM77 °FPassing clouds.6 mph83%29.95 "HgN/A
4:30 AM77 °FPassing clouds.5 mph83%29.95 "HgN/A
4:00 AM77 °FPassing clouds.7 mph83%29.95 "HgN/A
3:30 AM77 °FPassing clouds.6 mph83%29.95 "HgN/A
3:00 AM77 °FPassing clouds.7 mph83%29.95 "HgN/A
2:30 AM77 °FOvercast.7 mph83%29.95 "HgN/A
2:00 AM77 °FPassing clouds.6 mph89%29.95 "HgN/A
1:30 AM77 °FPassing clouds.6 mph89%29.98 "HgN/A
1:00 AM77 °FPassing clouds.5 mph83%29.98 "HgN/A
12:30 AM77 °FPassing clouds.12 mph83%29.98 "HgN/A
12:00 AM79 °FPartly cloudy.13 mph84%30.01 "HgN/A
11:30 PM
Sat, Apr 18
79 °FLight rain. Partly cloudy.10 mph84%30.01 "HgN/A
11:00 PM79 °FPartly cloudy.10 mph84%30.01 "HgN/A
10:30 PM77 °FOvercast.7 mph89%30.01 "HgN/A
10:00 PM77 °FMostly cloudy.9 mph89%30.01 "HgN/A
9:30 PM77 °FMostly cloudy.5 mph89%30.01 "HgN/A
9:00 PM77 °FMostly cloudy.7 mph89%30.01 "HgN/A
8:30 PM77 °FPartly cloudy.8 mph89%30.01 "HgN/A
8:00 PM79 °FPassing clouds.8 mph84%29.98 "HgN/A
7:30 PM79 °FPartly cloudy.10 mph84%29.98 "HgN/A
7:00 PM79 °FPartly cloudy.15 mph84%29.98 "HgN/A
6:30 PM81 °FPartly cloudy.12 mph74%29.98 "HgN/A
6:00 PM81 °FScattered clouds.14 mph74%29.98 "HgN/A
5:30 PM81 °FBroken clouds.15 mph74%29.95 "HgN/A
5:00 PM81 °FBroken clouds.14 mph74%29.95 "HgN/A
4:30 PM82 °FPartly sunny.16 mph70%29.95 "HgN/A
4:00 PM82 °FScattered clouds.18 mph70%29.95 "HgN/A
3:30 PM84 °FBroken clouds.16 mph66%29.98 "HgN/A
3:00 PM84 °FPartly sunny.16 mph66%29.98 "HgN/A
Weather by CustomWeather, © 2015

See weather overviewHow to use our weather pages